1507690800.93,32178,10.19,73578.0,-3.05,-3.87,-3.87,0,*59
1507690802.15,32179,10.19,73578.5,-3.05,-3.87,-3.87,0,*58
1507690803.37,32180,10.19,73576.0,-3.05,-3.87,-3.87,0,*5E
1507690804.59,32181,10.19,73572.3,-3.05,-3.95,-3.87,0,*5C
1507690805.8,32182,10.19,73568.0,-3.07,-3.91,-3.91,0,*5E
1507690807.02,32183,10.19,73570.8,-3.05,-3.87,-3.87,0,*5D
1507690808.23,32184,10.19,73570.0,-3.05,-3.87,-3.87,0,*5A
1507690809.45,32185,10.19,73582.0,-3.05,-3.87,-3.87,0,*5B
1507690810.67,32186,10.19,73580.3,-3.05,-3.87,-3.87,0,*58
1507690811.89,32187,10.19,73584.5,-3.05,-3.87,-3.87,0,*59
1507690813.11,32188,10.19,73580.3,-3.05,-3.87,-3.87,0,*56
1507690814.33,32189,10.19,73588.0,-3.05,-3.87,-3.87,0,*57
1507690815.54,32190,10.19,73594.0,-3.05,-3.87,-3.83,0,*5B
1507690816.75,32191,10.19,73588.5,-3.03,-3.83,-3.79,0,*5D
1507690817.96,32192,10.19,73586.5,-3.03,-3.83,-3.79,0,*5E
1507690819.17,32193,10.19,73580.5,-3.03,-3.79,-3.79,0,*5A
1507690820.4,32194,10.19,73580.5,-3.01,-3.79,-3.79,0,*5F
1507690821.63,32195,10.19,73580.5,-3.05,-3.83,-3.83,0,*5A
1507690822.85,32196,10.19,73580.8,-3.05,-3.79,-3.83,0,*5C
1507690824.06,32197,10.19,73574.8,-3.03,-3.79,-3.75,0,*52
1507690825.27,32198,10.19,73582.8,-3.03,-3.79,-3.79,0,*51
1507690826.48,32199,10.19,73580.8,-3.03,-3.75,-3.79,0,*5C
1507690827.68,32200,10.19,73580.8,-3.03,-3.79,-3.79,0,*53
1507690828.89,32201,10.19,73586.3,-3.03,-3.79,-3.79,0,*52
1507690830.1,32202,10.19,73580.3,-3.03,-3.79,-3.79,0,*51
1507690831.31,32203,10.19,73584.0,-3.03,-3.79,-3.75,0,*5C
1507690832.52,32204,10.19,73582.3,-3.03,-3.79,-3.75,0,*5B
1507690833.73,32205,10.19,73584.8,-3.03,-3.79,-3.79,0,*56
1507690834.95,32206,10.19,73584.0,-3.05,-3.79,-3.83,0,*56
1507690836.18,32207,10.19,73586.8,-3.05,-3.83,-3.83,0,*52
1507690837.38,32208,10.19,73584.5,-3.03,-3.79,-3.79,0,*5B
1507690838.59,32209,10.19,73582.5,-3.03,-3.79,-3.79,0,*5A
1507690839.8,32210,10.19,73586.5,-3.03,-3.79,-3.75,0,*5E
1507690841.01,32211,10.19,73590.8,-3.03,-3.79,-3.79,0,*53
1507690842.22,32212,10.19,73594.0,-3.03,-3.79,-3.79,0,*50
1507690843.42,32213,10.19,73600.0,-3.03,-3.79,-3.79,0,*51
1507690844.63,32214,10.19,73600.3,-3.03,-3.79,-3.79,0,*56
1507690845.84,32215,10.19,73594.0,-3.03,-3.79,-3.79,0,*57
1507690847.05,32216,10.19,73596.5,-3.03,-3.79,-3.79,0,*54
1507690848.26,32217,10.19,73598.8,-3.03,-3.79,-3.79,0,*55
1507690849.48,32218,10.19,73604.5,-3.05,-3.83,-3.83,0,*5C
1507690850.69,32219,10.19,73596.0,-3.03,-3.75,-3.79,0,*57
1507690851.91,32220,10.19,73596.5,-3.05,-3.83,-3.83,0,*57
1507690853.12,32221,10.19,73602.0,-3.03,-3.79,-3.79,0,*50
1507690854.33,32222,10.19,73604.8,-3.03,-3.79,-3.79,0,*53
1507690855.54,32223,10.19,73606.8,-3.03,-3.79,-3.79,0,*52
1507690856.75,32224,10.19,73600.8,-3.03,-3.79,-3.79,0,*55
1507690857.95,32225,10.19,73592.3,-3.03,-3.79,-3.79,0,*54
1507690859.16,32226,10.19,73596.0,-3.03,-3.75,-3.79,0,*5B
1507690860.37,32227,10.19,73590.0,-3.03,-3.79,-3.79,0,*56
1507690861.58,32228,10.19,73600.0,-3.03,-3.79,-3.79,0,*59
1507690862.79,32229,10.19,73590.0,-3.03,-3.79,-3.79,0,*58
1507690863.99,32230,10.19,73586.3,-3.03,-3.79,-3.79,0,*50
1507690865.2,32231,10.19,73592.8,-3.03,-3.75,-3.79,0,*5D
1507690866.41,32232,10.19,73590.3,-3.03,-3.75,-3.79,0,*5E
1507690867.62,32233,10.19,73582.5,-3.03,-3.79,-3.79,0,*53
1507690868.83,32234,10.19,73578.3,-3.03,-3.79,-3.79,0,*54
1507690870.04,32235,10.19,73582.3,-3.03,-3.79,-3.79,0,*55
1507690871.24,32236,10.19,73580.0,-3.03,-3.79,-3.79,0,*56
1507690872.45,32237,10.19,73580.5,-3.03,-3.79,-3.79,0,*57
1507690873.66,32238,10.19,73576.0,-3.03,-3.79,-3.79,0,*58
1507690874.87,32239,10.19,73582.3,-3.03,-3.79,-3.79,0,*59
1507690876.08,32240,10.19,73588.0,-3.03,-3.79,-3.79,0,*57
1507690877.28,32241,10.19,73586.5,-3.03,-3.79,-3.79,0,*56
1507690878.49,32242,10.19,73588.3,-3.03,-3.79,-3.79,0,*55
1507690879.7,32243,10.19,73598.0,-3.03,-3.79,-3.79,0,*54
1507690880.91,32244,10.19,73600.3,-3.03,-3.75,-3.79,0,*5F
1507690882.12,32245,10.19,73598.5,-3.03,-3.79,-3.75,0,*5E
1507690883.32,32246,10.19,73606.5,-3.03,-3.79,-3.75,0,*5D
1507690884.53,32247,10.19,73610.0,-3.03,-3.79,-3.79,0,*50
1507690885.74,32248,10.19,73610.5,-3.03,-3.75,-3.79,0,*53
1507690886.95,32249,10.19,73606.3,-3.03,-3.79,-3.79,0,*5E
1507690888.16,32250,10.19,73600.5,-3.03,-3.79,-3.79,0,*56
1507690889.37,32251,10.19,73598.5,-3.03,-3.79,-3.79,0,*57
1507690890.57,32252,10.19,73592.8,-3.03,-3.79,-3.75,0,*58
1507690891.78,32253,10.19,73590.3,-3.03,-3.79,-3.79,0,*55
1507690892.99,32254,10.19,73588.3,-3.03,-3.79,-3.75,0,*5E
1507690894.2,32255,10.19,73582.0,-3.03,-3.79,-3.79,0,*53
1507690895.43,32256,10.19,73578.8,-3.05,-3.83,-3.79,0,*53
1507690896.63,32257,10.19,73582.5,-3.03,-3.79,-3.79,0,*51
1507690897.84,32258,10.19,73576.8,-3.03,-3.79,-3.79,0,*5E
1507690899.05,32259,10.19,73562.0,-3.03,-3.79,-3.79,0,*5F
1507690900.26,32260,10.19,73562.0,-3.03,-3.79,-3.79,0,*55
1507690901.47,32261,10.19,73574.3,-3.03,-3.79,-3.79,0,*54
1507690902.67,32262,10.19,73568.8,-3.03,-3.79,-3.79,0,*57
1507690903.88,32263,10.19,73564.0,-3.03,-3.79,-3.75,0,*5A
1507690905.09,32264,10.19,73578.0,-3.03,-3.75,-3.79,0,*5D
1507690906.3,32265,10.19,73578.8,-3.03,-3.79,-3.79,0,*50
1507690907.51,32266,10.19,73576.5,-3.03,-3.75,-3.79,0,*5F
1507690908.72,32267,10.19,73578.3,-3.03,-3.79,-3.79,0,*52
1507690909.92,32268,10.19,73576.0,-3.03,-3.79,-3.75,0,*51
1507690911.13,32269,10.19,73572.3,-3.03,-3.79,-3.79,0,*5C
1507690912.34,32270,10.19,73588.3,-3.03,-3.79,-3.79,0,*54
1507690913.55,32271,10.19,73590.0,-3.03,-3.79,-3.79,0,*55
1507690914.78,32272,10.19,73598.0,-3.01,-3.79,-3.79,0,*54
1507690915.99,32273,10.19,73600.3,-3.03,-3.79,-3.79,0,*57
1507690917.2,32274,10.19,73586.8,-3.03,-3.79,-3.75,0,*5C
1507690918.41,32275,10.19,73588.8,-3.03,-3.79,-3.79,0,*51
1507690919.64,32276,10.19,73586.3,-3.01,-3.79,-3.79,0,*50
1507690920.85,32277,10.19,73594.0,-3.03,-3.79,-3.75,0,*5F
1507690922.06,32278,10.19,73592.8,-3.03,-3.75,-3.75,0,*5C
1507690923.27,32279,10.19,73586.3,-3.03,-3.75,-3.79,0,*51
1507690924.49,32280,10.19,73586.3,-3.05,-3.83,-3.79,0,*58
1507690925.7,32281,10.19,73582.0,-3.03,-3.79,-3.79,0,*5A
1507690926.91,32282,10.19,73588.3,-3.03,-3.75,-3.75,0,*59
1507690928.12,32283,10.19,73584.3,-3.03,-3.79,-3.75,0,*54
1507690929.33,32284,10.19,73578.0,-3.03,-3.79,-3.75,0,*53
1507690930.54,32285,10.19,73572.3,-3.03,-3.79,-3.75,0,*52
1507690931.74,32286,10.19,73574.5,-3.03,-3.75,-3.83,0,*54
1507690932.95,32287,10.19,73590.0,-3.03,-3.79,-3.79,0,*5C
1507690934.16,32288,10.19,73588.0,-3.03,-3.75,-3.75,0,*53
1507690935.39,32289,10.19,73586.8,-3.01,-3.75,-3.79,0,*5C
1507690936.6,32290,10.19,73592.0,-3.03,-3.79,-3.79,0,*5A
1507690937.81,32291,10.19,73590.8,-3.03,-3.79,-3.79,0,*5B
1507690939.04,32292,10.19,73592.8,-3.01,-3.79,-3.75,0,*56
1507690940.28,32293,10.19,73600.0,-3.01,-3.79,-3.75,0,*57
1507690941.51,32294,10.19,73594.0,-3.01,-3.79,-3.75,0,*50
1507690942.75,32295,10.19,73592.3,-3.01,-3.75,-3.79,0,*51
1507690943.96,32296,10.19,73590.0,-3.03,-3.79,-3.75,0,*50
1507690945.16,32297,10.19,73590.5,-3.03,-3.79,-3.75,0,*51
1507690946.37,32298,10.19,73598.8,-3.03,-3.79,-3.75,0,*5E
1507690947.58,32299,10.19,73590.5,-3.03,-3.79,-3.79,0,*53
1507690948.79,32300,10.19,73584.3,-3.03,-3.79,-3.75,0,*5E
1507690950.02,32301,10.19,73588.0,-3.01,-3.79,-3.75,0,*5D
1507690951.23,32302,10.19,73592.3,-3.03,-3.79,-3.75,0,*5C
1507690952.44,32303,10.19,73588.0,-3.03,-3.79,-3.75,0,*5D
1507690953.65,32304,10.19,73590.3,-3.03,-3.75,-3.75,0,*56
1507690954.86,32305,10.19,73592.3,-3.03,-3.75,-3.75,0,*57
1507690956.07,32306,10.19,73596.0,-3.03,-3.75,-3.75,0,*54
1507690957.28,32307,10.19,73596.3,-3.03,-3.75,-3.75,0,*55
1507690958.49,32308,10.19,73596.0,-3.03,-3.79,-3.79,0,*5A
1507690959.69,32309,10.19,73602.5,-3.03,-3.79,-3.79,0,*5B
1507690960.9,32310,10.19,73590.0,-3.03,-3.75,-3.79,0,*5F
1507690962.11,32311,10.19,73590.8,-3.03,-3.75,-3.79,0,*5E
1507690963.32,32312,10.25,73598.3,-3.03,-3.75,-3.79,0,*5D
1507690964.53,32313,10.19,73582.3,-3.03,-3.79,-3.75,0,*5C
1507690965.76,32314,10.19,73578.8,-3.01,-3.75,-3.75,0,*55
1507690966.97,32315,10.19,73584.3,-3.03,-3.79,-3.75,0,*5A
1507690968.2,32316,10.19,73594.0,-3.01,-3.79,-3.75,0,*5B
1507690969.44,32317,10.19,73590.3,-3.01,-3.79,-3.79,0,*56
1507690970.67,32318,10.19,73588.5,-3.01,-3.79,-3.75,0,*55
1507690971.88,32319,10.19,73590.3,-3.03,-3.75,-3.79,0,*56
1507690973.11,32320,10.19,73586.8,-3.03,-3.75,-3.67,0,*53
1507690974.34,32321,10.19,73588.8,-3.01,-3.75,-3.75,0,*53
1507690975.58,32322,10.19,73592.3,-3.01,-3.75,-3.79,0,*5C
1507690976.81,32323,10.19,73592.3,-3.01,-3.75,-3.75,0,*51
1507690978.02,32324,10.19,73586.3,-3.03,-3.75,-3.79,0,*58
1507690979.25,32325,10.19,73588.3,-3.01,-3.75,-3.75,0,*57
1507690980.46,32326,10.19,73596.0,-3.03,-3.75,-3.75,0,*56
1507690981.69,32327,10.19,73592.8,-3.03,-3.67,-3.75,0,*54
1507690982.92,32328,10.19,73596.0,-3.01,-3.75,-3.75,0,*5A
1507690984.16,32329,10.19,73598.3,-3.01,-3.75,-3.79,0,*57
1507690985.36,32330,10.19,73598.0,-3.03,-3.79,-3.75,0,*5D
1507690986.6,32331,10.19,73598.0,-3.01,-3.75,-3.75,0,*52
1507690987.83,32332,10.19,73602.8,-3.01,-3.75,-3.75,0,*51
1507690989.07,32333,10.19,73608.0,-3.01,-3.75,-3.75,0,*50
1507690990.3,32334,10.19,73602.5,-3.01,-3.79,-3.79,0,*57
1507690991.54,32335,10.19,73596.0,-3.01,-3.75,-3.75,0,*56
1507690992.75,32336,10.19,73592.3,-3.03,-3.75,-3.75,0,*57
1507690993.95,32337,10.19,73592.0,-3.03,-3.75,-3.75,0,*56
1507690995.19,32338,10.19,73588.8,-3.01,-3.79,-3.79,0,*5B
1507690996.42,32339,10.19,73600.0,-3.01,-3.75,-3.75,0,*5A
1507690997.63,32340,10.19,73594.3,-3.03,-3.79,-3.75,0,*5A
1507690998.87,32341,10.19,73590.8,-3.01,-3.79,-3.75,0,*59
1507691000.1,32342,10.19,73592.3,-3.01,-3.75,-3.79,0,*5A
1507691001.34,32343,10.19,73588.5,-3.01,-3.75,-3.75,0,*57
1507691002.54,32344,10.19,73584.0,-3.03,-3.79,-3.79,0,*52
1507691003.78,32345,10.19,73588.8,-3.01,-3.79,-3.75,0,*5D
1507691005.01,32346,10.19,73590.8,-3.01,-3.79,-3.79,0,*52
1507691006.25,32347,10.19,73586.8,-3.01,-3.79,-3.79,0,*53
1507691007.46,32348,10.19,73584.8,-3.03,-3.75,-3.79,0,*52
1507691008.69,32349,10.19,73592.0,-3.01,-3.75,-3.79,0,*51
1507691009.92,32350,10.19,73590.5,-3.01,-3.79,-3.75,0,*59
1507691011.13,32351,10.19,73582.8,-3.03,-3.75,-3.75,0,*56
1507691012.37,32352,10.19,73578.3,-3.01,-3.79,-3.79,0,*57
1507691013.6,32353,10.19,73580.8,-3.01,-3.75,-3.79,0,*5A
1507691014.81,32354,10.19,73576.8,-3.03,-3.75,-3.75,0,*53
1507691016.04,32355,10.19,73574.0,-3.01,-3.79,-3.75,0,*5C
1507691017.28,32356,10.19,73578.3,-3.01,-3.79,-3.75,0,*5F
1507691018.51,32357,10.19,73578.5,-3.01,-3.75,-3.75,0,*52
1507691019.72,32358,10.19,73578.5,-3.03,-3.79,-3.79,0,*5F
1507691020.93,32359,10.19,73572.3,-3.03,-3.79,-3.79,0,*5E
1507691022.16,32360,10.19,73576.3,-3.01,-3.75,-3.79,0,*5A
1507691023.37,32361,10.19,73576.8,-3.03,-3.75,-3.75,0,*55
1507691024.58,32362,10.19,73582.8,-3.03,-3.79,-3.75,0,*5A
1507691025.82,32363,10.19,73584.5,-3.01,-3.79,-3.75,0,*59
1507691027.05,32364,10.19,73582.0,-3.01,-3.75,-3.79,0,*5E
1507691028.28,32365,10.19,73586.5,-3.01,-3.79,-3.79,0,*53
1507691029.52,32366,10.19,73576.8,-3.01,-3.79,-3.79,0,*50
1507691030.75,32367,10.19,73574.8,-3.01,-3.79,-3.83,0,*54
1507691031.98,32368,10.19,73572.3,-3.01,-3.79,-3.83,0,*5B
1507691033.21,32369,10.19,73572.3,-3.01,-3.79,-3.83,0,*5A
1507691034.44,32370,10.19,73570.0,-3.01,-3.79,-3.83,0,*52
1507691035.68,32371,10.19,73578.8,-3.01,-3.79,-3.79,0,*56
1507691036.91,32372,10.19,73582.5,-3.01,-3.79,-3.79,0,*55
1507691038.11,32373,10.19,73578.0,-3.03,-3.79,-3.83,0,*53
1507691039.32,32374,10.19,73578.8,-3.03,-3.79,-3.83,0,*54
1507691040.55,32375,10.19,73574.3,-3.01,-3.79,-3.83,0,*57
1507691041.78,32376,10.19,73572.8,-3.01,-3.83,-3.83,0,*51
1507691043.01,32377,10.19,73572.3,-3.01,-3.79,-3.83,0,*55
1507691044.22,32378,10.19,73576.0,-3.03,-3.79,-3.79,0,*5D
1507691045.45,32379,10.19,73590.5,-3.01,-3.79,-3.79,0,*5E
1507691046.66,32380,10.19,73584.5,-3.03,-3.79,-3.79,0,*5A
1507691047.9,32381,10.19,73578.0,-3.01,-3.75,-3.79,0,*55
1507691049.11,32382,10.19,73574.8,-3.03,-3.79,-3.75,0,*54
1507691050.34,32383,10.19,73568.0,-3.01,-3.79,-3.75,0,*57
1507691051.55,32384,10.19,73578.0,-3.03,-3.79,-3.75,0,*52
1507691052.76,32385,10.19,73578.5,-3.03,-3.79,-3.79,0,*5F
1507691053.96,32386,10.19,73574.5,-3.03,-3.79,-3.79,0,*5C
1507691055.2,32387,10.19,73576.8,-3.01,-3.79,-3.79,0,*5F
1507691056.43,32388,10.19,73578.5,-3.01,-3.79,-3.79,0,*50
1507691057.64,32389,10.19,73580.5,-3.03,-3.79,-3.79,0,*53
1507691058.85,32390,10.19,73584.8,-3.03,-3.75,-3.79,0,*57
1507691060.06,32391,10.19,73592.5,-3.03,-3.79,-3.79,0,*5A
1507691061.29,32392,10.19,73594.5,-3.01,-3.79,-3.79,0,*5B
1507691062.53,32393,10.19,73600.5,-3.01,-3.79,-3.75,0,*56
1507691063.73,32394,10.19,73592.8,-3.03,-3.79,-3.79,0,*5F
1507691064.94,32395,10.19,73592.0,-3.03,-3.79,-3.75,0,*52
1507691066.17,32396,10.19,73600.8,-3.01,-3.79,-3.79,0,*5F
1507691067.41,32397,10.19,73596.5,-3.01,-3.79,-3.79,0,*5E
1507691068.64,32398,10.19,73590.5,-3.01,-3.79,-3.79,0,*51
1507691069.88,32399,10.19,73580.5,-3.01,-3.79,-3.79,0,*50
1507691071.09,32400,10.19,73576.8,-3.03,-3.75,-3.75,0,*55
1507691072.32,32401,10.19,73568.5,-3.01,-3.79,-3.79,0,*56
1507691073.55,32402,10.19,73568.8,-3.01,-3.79,-3.79,0,*55
1507691074.76,32403,10.19,73574.3,-3.03,-3.79,-3.75,0,*5A
1507691075.97,32404,10.19,73572.5,-3.03,-3.79,-3.75,0,*5D
1507691077.21,32405,10.19,73580.8,-3.01,-3.79,-3.79,0,*52
1507691078.44,32406,10.19,73586.8,-3.01,-3.75,-3.79,0,*5D
1507691079.65,32407,10.19,73580.8,-3.03,-3.75,-3.75,0,*52
1507691080.88,32408,10.19,73584.0,-3.01,-3.79,-3.79,0,*5F
1507691082.12,32409,10.19,73580.0,-3.01,-3.75,-3.75,0,*5E
1507691083.32,32410,10.19,73590.0,-3.03,-3.79,-3.79,0,*54
1507691084.56,32411,10.19,73586.0,-3.01,-3.75,-3.75,0,*57
1507691085.77,32412,10.19,73584.8,-3.03,-3.79,-3.75,0,*5A
1507691087.0,32413,10.19,73598.3,-3.01,-3.79,-3.79,0,*55
1507691088.24,32414,10.19,73602.3,-3.01,-3.79,-3.79,0,*52
1507691089.44,32415,10.19,73596.3,-2.99,-3.75,-3.75,0,*53
1507691090.68,32416,10.19,73592.8,-3.01,-3.75,-3.79,0,*5C
1507691091.89,32417,10.19,73592.0,-3.03,-3.75,-3.79,0,*5F
1507691093.12,32418,10.19,73592.0,-3.01,-3.75,-3.75,0,*5E
1507691094.36,32419,10.19,73592.8,-3.01,-3.75,-3.79,0,*53
1507691095.59,32420,10.19,73592.3,-3.01,-3.79,-3.75,0,*59
1507691096.82,32421,10.19,73584.8,-3.01,-3.75,-3.79,0,*58
1507691098.06,32422,10.19,73578.8,-3.01,-3.79,-3.75,0,*5B
1507691099.29,32423,10.19,73576.0,-3.01,-3.79,-3.79,0,*56
1507691100.53,32424,10.19,73576.5,-3.01,-3.75,-3.75,0,*51
1507691101.73,32425,10.19,73572.8,-3.03,-3.79,-3.75,0,*5E
1507691102.97,32426,10.19,73574.5,-3.01,-3.75,-3.75,0,*53
1507691104.18,32427,10.19,73578.8,-3.03,-3.79,-3.79,0,*50
1507691105.41,32428,10.19,73572.0,-3.01,-3.79,-3.79,0,*5D
1507691106.65,32429,10.19,73570.5,-3.01,-3.75,-3.79,0,*50
1507691107.88,32430,10.19,73568.5,-3.01,-3.75,-3.79,0,*58
1507691109.12,32431,10.19,73574.3,-3.01,-3.79,-3.75,0,*59
1507691110.35,32432,10.19,73576.3,-3.01,-3.79,-3.79,0,*56
1507691111.56,32433,10.19,73570.0,-3.03,-3.79,-3.75,0,*59
1507691112.77,32434,10.19,73574.3,-3.03,-3.79,-3.79,0,*52
1507691114.0,32435,10.19,73576.5,-3.01,-3.79,-3.75,0,*5D
1507691115.23,32436,10.19,73582.5,-3.01,-3.75,-3.75,0,*52
1507691116.47,32437,10.19,73592.8,-3.01,-3.75,-3.75,0,*53
1507691117.7,32438,10.19,73594.0,-3.01,-3.79,-3.79,0,*5C
1507691118.94,32439,10.19,73600.5,-3.01,-3.79,-3.79,0,*5D
1507691120.17,32440,10.19,73606.5,-3.01,-3.79,-3.75,0,*5F
1507691121.4,32441,10.19,73608.8,-3.01,-3.79,-3.79,0,*52
1507691122.64,32442,10.19,73608.0,-3.01,-3.79,-3.79,0,*51
1507691123.87,32443,10.19,73606.3,-3.01,-3.79,-3.75,0,*5C
1507691125.11,32444,10.19,73604.5,-3.01,-3.75,-3.79,0,*5B
1507691126.34,32445,10.19,73594.3,-3.01,-3.79,-3.75,0,*5A
1507691127.58,32446,10.19,73572.0,-3.01,-3.79,-3.79,0,*55
1507691128.81,32447,10.19,73584.8,-3.01,-3.75,-3.75,0,*54
1507691130.04,32448,10.19,73578.0,-3.01,-3.79,-3.79,0,*5B
1507691131.28,32449,10.19,73580.0,-3.01,-3.79,-3.75,0,*56
1507691132.51,32450,10.19,73580.3,-3.01,-3.79,-3.79,0,*52
1507691133.75,32451,10.19,73580.3,-3.01,-3.79,-3.79,0,*53
1507691134.98,32452,10.19,73598.0,-3.01,-3.75,-3.75,0,*50
1507691136.22,32453,10.19,73582.3,-3.01,-3.79,-3.75,0,*5D
1507691137.45,32454,10.19,73582.0,-3.01,-3.79,-3.79,0,*56
1507691138.68,32455,10.19,73594.0,-3.01,-3.79,-3.79,0,*57
1507691139.92,32456,10.19,73602.3,-3.01,-3.79,-3.79,0,*54
1507691141.13,32457,10.19,73602.0,-3.03,-3.75,-3.75,0,*57
1507691142.38,32458,10.19,73592.3,-3.01,-3.75,-3.67,0,*59
1507691143.61,32459,10.19,73598.0,-3.01,-3.79,-3.75,0,*57
1507691144.85,32460,10.19,73598.5,-3.01,-3.79,-3.79,0,*51
1507691146.08,32461,10.19,73596.5,-3.01,-3.75,-3.75,0,*50
1507691147.31,32462,10.19,73606.8,-3.01,-3.75,-3.79,0,*5F
1507691148.55,32463,10.19,73606.5,-3.01,-3.75,-3.79,0,*5E
1507691149.78,32464,10.19,73602.3,-3.01,-3.79,-3.75,0,*59
1507691150.99,32465,10.19,73606.8,-2.99,-3.75,-3.75,0,*54
1507691152.2,32466,10.19,73600.3,-2.99,-3.75,-3.75,0,*57
1507691153.41,32467,10.19,73592.0,-2.99,-3.75,-3.75,0,*56
1507691154.65,32468,10.19,73596.0,-2.99,-3.71,-3.71,0,*59
1507691155.88,32469,10.19,73594.3,-3.01,-3.75,-3.75,0,*58
1507691157.11,32470,10.19,73592.8,-3.01,-3.79,-3.75,0,*5C
1507691158.37,32471,10.19,73584.3,-3.01,-3.67,-3.75,0,*52
1507691159.6,32472,10.19,73570.5,-3.01,-3.75,-3.79,0,*5E
1507691160.83,32473,10.19,73568.0,-3.01,-3.75,-3.75,0,*53
1507691162.07,32474,10.19,73572.8,-3.01,-3.75,-3.75,0,*54
1507691163.3,32475,10.19,73582.5,-3.01,-3.75,-3.75,0,*55
1507691164.54,32476,10.19,73578.8,-3.01,-3.75,-3.75,0,*56
1507691165.79,32477,10.19,73584.8,-3.01,-3.67,-3.75,0,*54
1507691167.02,32478,10.19,73588.8,-3.01,-3.75,-3.79,0,*54
1507691168.26,32479,10.19,73592.0,-3.01,-3.79,-3.75,0,*55
1507691169.49,32480,10.19,73592.5,-3.01,-3.75,-3.79,0,*53
1507691170.72,32481,10.19,73602.3,-2.99,-3.75,-3.71,0,*5A
1507691171.96,32482,10.19,73604.3,-2.99,-3.71,-3.63,0,*5E
1507691173.2,32483,10.19,73604.0,-2.99,-3.71,-3.63,0,*5F
1507691174.43,32484,10.19,73602.0,-3.01,-3.75,-3.75,0,*5B
1507691175.66,32485,10.19,73602.0,-3.01,-3.75,-3.79,0,*56
1507691176.9,32486,10.19,73602.5,-3.01,-3.75,-3.79,0,*55
1507691178.13,32487,10.19,73606.8,-3.01,-3.75,-3.75,0,*58
1507691179.4,32488,10.19,73610.3,-3.01,-3.67,-3.63,0,*53
1507691180.64,32489,10.19,73604.0,-2.99,-3.63,-3.63,0,*56
1507691181.89,32490,10.19,73600.5,-2.99,-3.71,-3.63,0,*5D
1507691183.15,32491,10.19,73592.5,-3.01,-3.67,-3.67,0,*5F
1507691184.4,32492,10.19,73600.3,-3.01,-3.67,-3.75,0,*5F
1507691185.64,32493,10.19,73604.5,-3.01,-3.75,-3.79,0,*51
1507691186.88,32494,10.19,73606.8,-2.99,-3.71,-3.71,0,*5A
1507691188.11,32495,10.19,73606.0,-2.99,-3.71,-3.71,0,*5B
1507691189.34,32496,10.19,73600.5,-2.99,-3.63,-3.75,0,*5F
1507691190.61,32497,10.19,73602.5,-2.97,-3.71,-3.63,0,*54
1507691191.83,32498,10.19,73596.5,-2.99,-3.75,-3.71,0,*52
1507691193.05,32499,10.19,73602.8,-2.99,-3.71,-3.75,0,*53
1507691194.29,32500,10.19,73610.0,-2.99,-3.71,-3.63,0,*55
1507691195.53,32501,10.19,73608.0,-2.99,-3.71,-3.71,0,*57
1507691196.77,32502,10.19,73610.0,-2.99,-3.63,-3.63,0,*54
1507691198.02,32503,10.19,73608.8,-2.99,-3.63,-3.63,0,*55
1507691199.26,32504,10.19,73608.5,-2.99,-3.63,-3.71,0,*51
1507691200.5,32505,10.19,73606.0,-2.99,-3.71,-3.71,0,*53
1507691201.72,32506,10.19,73612.8,-2.99,-3.75,-3.63,0,*57
1507691202.95,32507,10.19,73608.8,-2.99,-3.75,-3.71,0,*55
1507691204.19,32508,10.19,73606.3,-2.99,-3.71,-3.71,0,*5E
1507691205.41,32509,10.19,73606.5,-2.99,-3.75,-3.71,0,*5B
1507691206.65,32510,10.19,73598.3,-2.99,-3.71,-3.71,0,*57
1507691207.91,32511,10.19,73600.0,-2.97,-3.71,-3.63,0,*5B
1507691209.16,32512,10.19,73606.0,-2.97,-3.75,-3.71,0,*5F
1507691210.39,32513,10.19,73596.0,-3.01,-3.75,-3.79,0,*58
1507691211.63,32514,10.19,73598.5,-3.01,-3.75,-3.75,0,*53
1507691212.86,32515,10.19,73596.0,-3.01,-3.79,-3.75,0,*5E
1507691214.1,32516,10.19,73606.0,-3.01,-3.75,-3.75,0,*51
1507691215.34,32517,10.19,73596.5,-2.99,-3.71,-3.71,0,*50
1507691216.56,32518,10.19,73604.3,-2.99,-3.75,-3.71,0,*5B
1507691217.78,32519,10.19,73600.0,-2.99,-3.75,-3.71,0,*5A
1507691219.02,32520,10.19,73600.0,-2.99,-3.71,-3.71,0,*54
1507691220.26,32521,10.19,73596.8,-2.99,-3.71,-3.71,0,*55
1507691221.49,32522,10.19,73590.3,-2.97,-3.75,-3.75,0,*58
1507691222.72,32523,10.19,73598.3,-2.99,-3.75,-3.71,0,*53
1507691223.94,32524,10.19,73598.0,-2.99,-3.71,-3.75,0,*54
1507691225.18,32525,10.19,73600.8,-2.99,-3.71,-3.71,0,*51
1507691226.4,32526,10.19,73602.3,-2.99,-3.75,-3.63,0,*55
1507691227.64,32527,10.19,73602.5,-2.99,-3.71,-3.71,0,*53
1507691228.88,32528,10.19,73596.0,-2.99,-3.71,-3.71,0,*5C
1507691230.11,32529,10.19,73594.0,-2.99,-3.75,-3.71,0,*59
1507691231.35,32530,10.19,73586.5,-2.99,-3.63,-3.71,0,*56
1507691232.59,32531,10.19,73584.0,-2.99,-3.71,-3.63,0,*57
1507691233.83,32532,10.19,73584.0,-2.99,-3.63,-3.63,0,*57
1507691235.07,32533,10.19,73586.3,-2.99,-3.63,-3.71,0,*55
1507691236.32,32534,10.19,73584.5,-2.99,-3.63,-3.63,0,*51
1507691237.56,32535,10.19,73586.0,-2.99,-3.71,-3.71,0,*50
1507691238.8,32536,10.19,73588.0,-2.99,-3.71,-3.71,0,*53
1507691240.06,32537,10.19,73586.8,-2.97,-3.71,-3.63,0,*5F
1507691241.33,32538,10.19,73590.5,-2.97,-3.71,-3.59,0,*59
1507691242.6,32539,10.19,73602.3,-2.97,-3.63,-3.71,0,*51
1507691243.83,32540,10.19,73600.0,-2.99,-3.71,-3.63,0,*51
1507691245.07,32541,10.19,73606.0,-2.99,-3.71,-3.71,0,*53
1507691246.32,32542,10.19,73602.8,-2.99,-3.63,-3.71,0,*53
1507691247.54,32543,10.19,73614.5,-2.99,-3.75,-3.71,0,*55
1507691248.81,32544,10.19,73608.5,-2.97,-3.63,-3.71,0,*5B
1507691250.03,32545,10.19,73606.8,-2.99,-3.75,-3.71,0,*53
1507691251.25,32546,10.19,73608.8,-2.99,-3.75,-3.71,0,*50
1507691252.49,32547,10.19,73618.5,-2.99,-3.71,-3.71,0,*55
1507691253.73,32548,10.19,73606.5,-2.99,-3.71,-3.71,0,*5A
1507691254.97,32549,10.19,73604.8,-2.99,-3.71,-3.71,0,*5B
1507691256.21,32550,10.19,73610.5,-2.99,-3.71,-3.71,0,*53
1507691257.46,32551,10.19,73604.0,-2.97,-3.71,-3.75,0,*58
1507691258.68,32552,10.19,73606.5,-2.99,-3.71,-3.75,0,*55
1507691259.94,32553,10.19,73596.0,-2.97,-3.71,-3.71,0,*5E
1507691261.15,32554,10.25,73604.0,-2.99,-3.75,-3.75,0,*57
1507691262.37,32555,10.19,73598.0,-2.99,-3.75,-3.71,0,*52
1507691263.6,32556,10.19,73596.5,-2.99,-3.75,-3.71,0,*51
1507691264.84,32557,10.19,73592.8,-2.97,-3.75,-3.71,0,*5E
1507691266.05,32558,10.19,73602.8,-2.99,-3.75,-3.75,0,*5B
1507691267.26,32559,10.19,73600.3,-2.99,-3.75,-3.75,0,*5A
1507691268.48,32560,10.19,73602.3,-2.99,-3.75,-3.71,0,*54
1507691269.72,32561,10.19,73598.3,-2.99,-3.71,-3.71,0,*51
1507691270.96,32562,10.19,73582.8,-2.99,-3.71,-3.71,0,*52
1507691272.17,32563,10.19,73580.5,-2.99,-3.75,-3.75,0,*53
1507691273.42,32564,10.25,73574.5,-2.97,-3.71,-3.75,0,*5E
1507691274.66,32565,10.19,73566.5,-2.97,-3.75,-3.71,0,*5F
1507691275.87,32566,10.19,73560.5,-2.99,-3.75,-3.75,0,*56
1507691277.1,32567,10.19,73574.5,-2.97,-3.75,-3.75,0,*59
1507691278.33,32568,10.19,73584.0,-2.99,-3.75,-3.71,0,*5C
1507691279.56,32569,10.19,73590.3,-2.97,-3.75,-3.75,0,*57
1507691280.77,32570,10.19,73578.3,-2.99,-3.75,-3.75,0,*51
1507691281.99,32571,10.19,73568.3,-2.99,-3.71,-3.75,0,*54
1507691283.2,32572,10.19,73570.3,-2.99,-3.75,-3.75,0,*53
1507691284.4,32573,10.19,73578.5,-2.99,-3.75,-3.75,0,*52
1507691285.63,32574,10.19,73576.8,-2.99,-3.71,-3.75,0,*51
1507691286.84,32575,10.19,73582.5,-2.99,-3.75,-3.75,0,*54
1507691288.06,32576,10.19,73578.5,-2.99,-3.75,-3.71,0,*53
1507691289.3,32577,10.19,73570.8,-2.99,-3.71,-3.71,0,*56
1507691290.52,32578,10.19,73574.8,-2.99,-3.75,-3.71,0,*5D
1507691291.76,32579,10.25,73588.5,-2.99,-3.71,-3.71,0,*58
1507691292.98,32580,10.19,73588.5,-2.99,-3.75,-3.71,0,*5A
1507691294.21,32581,10.19,73582.8,-2.99,-3.71,-3.75,0,*5B
1507691295.43,32582,10.19,73586.3,-2.99,-3.75,-3.71,0,*58
1507691296.68,32583,10.19,73592.3,-2.97,-3.71,-3.75,0,*57
1507691297.92,32584,10.19,73590.0,-2.97,-3.75,-3.71,0,*50
1507691299.17,32585,10.19,73590.0,-2.97,-3.75,-3.71,0,*51
1507691300.42,32586,10.19,73598.8,-2.97,-3.75,-3.71,0,*52
1507691301.64,32587,10.19,73600.5,-2.99,-3.75,-3.71,0,*5D
1507691302.91,32588,10.19,73606.3,-2.97,-3.71,-3.71,0,*58
1507691304.15,32589,10.19,73588.5,-2.99,-3.71,-3.63,0,*54
1507691305.41,32590,10.19,73594.0,-2.97,-3.63,-3.71,0,*52
1507691306.65,32591,10.19,73592.5,-2.99,-3.63,-3.71,0,*5D